Flag for Brazil Weather past 2 weeks in Rio de Janeiro, Rio de Janeiro, Brazil

Now
64 °F

Partly cloudy.


Feels Like: 64 °F
Forecast: 67 / 71 °F
Wind: 7 mph from Southwest

Location: Galeao

Current Time: Jul 26, 2014 at 5:07:30 AM

Latest Report: Jul 26, 2014 at 4:00 AM


Visibility: 5 mi

Pressure: 30.09 "Hg

Humidity: 88%

Dew point: 61 °F

Location of Rio de JaneiroLocation

Historic Weather in Rio de Janeiro — Graph

°F

Rio de Janeiro temperature yesterday

Maximum temperature yesterday: 73 °F (at 8:00 AM)
Minimum temperature yesterday: 64 °F (at 5:00 PM)
Average temperature yesterday: 68 °F

Past Weeks' High & Low Weather Summary

 TemperatureHumidityPressure
High97 °F (Jul 24, 2:00 PM)94% (Jul 11, 4:00 AM)30.36 "Hg (Jul 11, 4:00 AM)
Low59 °F (Jul 22, 7:00 AM)22% (Jul 24, 3:00 PM)29.86 "Hg (Jul 24, 5:00 PM)
Average70 °F68%30.16 "Hg
* Reported Jul 11 4:00 AM — Jul 26 4:00 AM, Rio de Janeiro, Weather by CustomWeather, © 2014

Note: Actual official high and low records may vary slightly from our data, if they occured in-between our weather recording intervals... More about our weather records

Advertising

Rio de Janeiro weather history for previous 24 hours

 ConditionsComfort  
Time TempWeatherWind HumidityBarometerVisibility
4:00 AM
Jul 26
64 °FPartly cloudy.7 mph88%30.09 "Hg5 mi
3:00 AM63 °FMostly cloudy.No wind88%30.09 "HgN/A
2:00 AM63 °FLight rain. Partly cloudy.2 mph88%30.12 "Hg2 mi
1:00 AM63 °FLight rain. Passing clouds.5 mph88%30.12 "Hg4 mi
12:00 AM64 °FPassing clouds.6 mph83%30.15 "Hg4 mi
11:00 PM
Jul 25
64 °FPartly cloudy.6 mph83%30.15 "HgN/A
10:00 PM64 °FPartly cloudy.6 mph88%30.15 "HgN/A
9:00 PM64 °FPartly cloudy.3 mph83%30.15 "HgN/A
8:00 PM66 °FPassing clouds.3 mph83%30.12 "HgN/A
7:00 PM66 °FPartly cloudy.6 mph83%30.12 "HgN/A
6:00 PM64 °FPartly cloudy.3 mph83%30.12 "HgN/A
5:00 PM64 °FLight rain. Partly cloudy.5 mph94%30.09 "Hg2 mi
4:00 PM66 °FPartly sunny.7 mph83%30.07 "HgN/A
3:00 PM66 °FDrizzle. Partly sunny.12 mph83%30.04 "Hg5 mi
2:00 PM68 °FPartly sunny.8 mph78%30.04 "HgN/A
1:00 PM68 °FPartly sunny.16 mph78%30.04 "HgN/A
12:00 PM72 °FBroken clouds.15 mph69%30.04 "HgN/A
11:00 AM72 °FScattered clouds.17 mph69%30.07 "HgN/A
10:00 AM72 °FBroken clouds.17 mph73%30.04 "HgN/A
9:00 AM73 °FBroken clouds.23 mph74%30.01 "HgN/A
8:00 AM73 °FPartly sunny.3 mph83%29.95 "HgN/A
7:00 AM70 °FLight rain. Partly sunny.3 mph88%29.92 "HgN/A
6:00 AM68 °FLight rain. Partly sunny.3 mph94%29.89 "HgN/A
5:00 AM68 °FLight rain. Passing clouds.2 mph94%29.92 "HgN/A
Weather by CustomWeather, © 2014

See weather overviewHow to use our weather pages